Location: Austin
(30.3000°N, 97.7500°W)
Time: 06:35:52
(UTC-05:00)

Daily predictions for brighter satellites

Satellite Brightness Start Highest point End
(mag) Time Altitude Azimuth Time Altitude Azimuth Time Altitude Azimuth
H-2A ROCKET BODY 3.3 20:13:01 10° W 20:17:01 50° S 20:31:44 10° ESE
Cosmos 2098 Rocket 3.6 20:19:28 10° SSE 20:24:17 42° E 20:28:16 10° NNE
Cosmos 44 4.3 20:19:44 10° SSE 20:24:18 29° ESE 20:28:54 10° NE
NOSS 3-1 (A) 3.2 20:22:43 10° SW 20:27:20 71° WNW 20:32:35 10° NNE
CZ-4B R/B 3.7 20:26:03 10° S 20:30:57 71° WSW 20:35:45 10° NNW
Meteor 1-21 Rocket 4.4 20:26:18 10° N 20:32:12 67° E 20:38:01 10° SSE
USA 186 3.8 20:31:22 10° E 20:32:28 12° ENE 20:33:36 10° NE
Tiangong 0.4 20:30:58 10° WNW 20:33:16 19° NNW 20:35:35 10° NNE
CZ-4B R/B 4.3 20:28:59 10° SE 20:33:38 27° ENE 20:38:15 10° NNE
USA 229 DEB 3.8 20:30:56 10° S 20:36:21 39° ESE 20:42:06 10° NE
USA 229 3.8 20:31:02 10° S 20:36:28 38° ESE 20:42:12 10° NE
Cosmos 2218 Rocket 4.0 20:30:17 10° N 20:36:38 66° E 20:42:51 10° SSE
Cosmos 1025 Rocket 3.2 20:36:19 10° N 20:40:42 81° W 20:45:03 10° S
Milstar 3 3.7 20:33:48 10° WSW 20:41:33 75° SSE 20:55:43 10° E
CZ-4 R/B 1.9 20:38:58 10° SE 20:42:37 38° ENE 20:46:12 10° N
OAO 3 Rocket 3.4 20:40:21 10° WNW 20:45:08 65° SSW 20:49:22 13° SE
CZ-4B R/B 2.5 20:45:59 10° SSE 20:49:40 85° ENE 20:53:13 10° N
Okean 2 Rocket 4.0 20:46:18 10° SSE 20:50:06 27° E 20:53:54 10° NNE
Cosmos 1833 4.2 20:44:59 10° NNW 20:50:37 89° NE 20:56:15 10° SSE
ATLAS 3B R/B 3.9 20:48:49 10° SW 20:55:22 48° WNW 21:02:29 10° NNE
DELTA 4 R/B 2.8 20:54:53 10° WSW 20:59:23 39° SSE 21:02:23 20° ESE
SJ-6B 2.8 21:01:30 10° S 21:05:27 84° W 21:09:25 10° NNW
Atlas Centaur 2 2.0 21:00:26 10° W 21:06:44 87° S 21:10:17 20° E
Okean 1 Rocket 4.1 21:06:03 22° ESE 21:07:19 25° E 21:10:58 10° NE
Feng Yun 1-1 Rocket 4.4 21:06:57 15° SE 21:11:26 52° ENE 21:16:54 10° N
Cosmos 1763 Rocket 4.3 21:10:57 21° SE 21:12:57 27° E 21:17:12 10° NE
Resurs 1-3 3.8 21:09:00 10° S 21:13:18 69° WSW 21:17:39 10° NNW
PSLV R/B 4.3 21:14:34 31° ESE 21:15:32 37° ENE 21:19:01 10° N
Sich 1 Rocket 3.5 21:13:11 10° S 21:17:30 61° E 21:21:52 10° NNE
CSL-04 Debris 4.2 21:16:27 19° SSE 21:20:16 58° ENE 21:25:37 10° N
Cosmos 1975 Rocket 3.9 21:16:59 10° NNW 21:21:09 50° W 21:25:18 10° SSW
Okean-O 3.8 21:24:56 24° ENE 21:24:56 24° ENE 21:28:26 10° NNE
CSL-04 Rocket 3.7 21:24:19 23° SSE 21:27:46 63° ENE 21:33:09 10° N
Cosmos 1697 Rocket 3.2 21:26:40 23° SSE 21:29:27 36° ESE 21:34:36 10° NE
SL-27 R/B 3.6 21:30:51 10° NW 21:33:25 32° WSW 21:34:28 24° SW
Cosmos 371 Rocket 3.6 21:29:35 10° N 21:34:10 44° ENE 21:34:56 40° E
IUS R/B (1) 1.9 21:31:56 10° W 21:34:14 66° S 21:34:32 61° SE
Okean O Rocket 1.5 21:34:24 40° SSE 21:35:52 71° ENE 21:40:13 10° N
SJ 16-02 4.2 21:35:20 10° WNW 21:37:37 14° W 21:39:53 10° SW
Cosmos 2360 4.1 21:34:17 10° S 21:39:54 69° ESE 21:45:34 10° NNE
SPOT 1/Viking Rocket 4.3 21:35:31 10° S 21:40:35 52° W 21:45:40 10° NNW
Cosmos 1656 4.3 21:37:11 10° SSW 21:42:40 56° WNW 21:48:07 10° N
OAO 1 Rocket 4.4 21:37:19 10° WNW 21:42:41 83° NNE 21:44:14 47° E
Cosmos 1536 Rocket 3.4 21:43:04 10° N 21:47:30 70° E 21:47:52 65° ESE
Cosmos 1486 Rocket 4.2 21:44:09 10° NNW 21:49:17 66° WSW 21:51:47 30° S
CZ-4C R/B 3.6 21:48:46 10° N 21:51:18 48° N 21:51:18 48° N
Hubble Space Telescope 3.1 21:50:47 10° SW 21:52:14 12° SSW 21:52:14 12° SSW
Resurs 01 Rocket 2.0 21:53:31 38° SSW 21:55:01 61° W 21:59:24 10° NNW
Terra 4.0 21:57:24 13° NE 21:57:24 13° NE 21:58:15 10° NNE
Cosmos 1241 Rocket 4.4 21:49:19 10° NNW 21:55:40 87° WSW 21:57:56 43° SSE
SPOT 5 3.9 21:57:59 35° ENE 21:57:59 35° ENE 22:02:12 10° N
Cosmos 2297 Rocket 2.9 21:53:42 10° N 21:58:41 36° ENE 21:58:41 36° ENE
CZ-4C R/B 4.4 21:53:11 10° N 21:59:03 23° NE 22:00:55 21° ENE
Cosmos 1932 4.3 21:55:53 10° NNW 22:02:05 85° ENE 22:03:30 56° SE
USA 186 4.2 22:03:47 17° WSW 22:04:19 17° W 22:06:26 10° NW
Tiangong 1.0 22:10:02 10° NNW 22:10:31 10° N 22:10:31 10° N
USA 281 3.1 22:11:51 59° ESE 22:12:50 66° ENE 22:19:21 10° NNW
Alouette 2 Rocket 4.1 22:13:45 10° N 22:18:30 63° N 22:18:30 63° N
Cosmos 1605 Rocket 4.0 22:18:11 10° N 22:24:09 67° ENE 22:24:09 67° ENE
USA 234 3.3 22:26:11 57° ENE 22:26:45 59° NE 22:33:09 10° NNW
COSMOS 2455 3.5 22:23:48 10° NNW 22:28:40 44° NE 22:28:40 44° NE
Iridium 4 Rocket 4.3 22:31:19 43° SW 22:32:32 52° W 22:38:08 10° N
DELTA 4 R/B 4.1 22:32:53 10° WSW 22:34:50 23° WSW 22:34:50 23° WSW
Atlas Centaur 2 3.6 22:50:06 10° W 22:52:34 26° W 22:52:34 26° W
Cosmos 1980 Rocket 4.0 23:08:46 24° N 23:08:46 24° N 23:11:00 10° NNE
Cosmos 2227 Rocket 3.6 23:09:16 10° NNW 23:12:18 33° NNW 23:12:18 33° NNW
Cosmos 2297 Rocket 4.4 23:38:19 10° NW 23:40:30 18° WNW 23:40:30 18° WNW
CZ-4C R/B 3.6 23:40:12 10° NNW 23:46:02 55° NW 23:46:02 55° NW
